Flag for Norway Weather past 2 weeks in Larvik, Norway

Now
59 °F

Mostly cloudy.


Feels Like: 58 °F
Forecast: 56 / 71 °F
Wind: 7 mph from Northwest

Location: Torp

Current Time: Jun 30, 2015 at 1:44:53 AM

Latest Report: Jun 30, 2015 at 12:50 AM


Visibility: N/A

Pressure: 29.95 "Hg

Humidity: 59%

Dew point: 45 °F

Location of LarvikLocation

Historic Weather in Larvik — Graph

°F

Larvik temperature yesterday

Maximum temperature yesterday: 68 °F (at 2:50 PM)
Minimum temperature yesterday: 55 °F (at 2:20 AM)
Average temperature yesterday: 61 °F

Past Weeks' High & Low Weather Summary

 TemperatureHumidityPressure
High70 °F (Jun 20, 4:20 PM)100% (Jun 17, 1:20 PM)30.09 "Hg (Jun 17, 1:20 PM)
Low45 °F (Jun 15, 3:20 AM)34% (Jun 15, 12:20 PM)29.59 "Hg (Jun 18, 4:50 AM)
Average57 °F72%29.84 "Hg
* Reported Jun 15 12:20 AM — Jun 30 12:50 AM, Larvik, Weather by CustomWeather, © 2015

Note: Actual official high and low records may vary slightly from our data, if they occured in-between our weather recording intervals... More about our weather records

Advertising

Larvik weather history for previous 24 hours

 ConditionsComfort  
Time TempWeatherWind HumidityBarometerVisibility
12:50 AM
Tue, Jun 30
59 °FMostly cloudy.7 mph59%29.95 "HgN/A
12:20 AM59 °FOvercast.7 mph63%29.95 "HgN/A
11:20 PM
Mon, Jun 29
61 °FBroken clouds.7 mph68%29.95 "HgN/A
10:50 PM63 °FSunny.6 mph68%29.92 "Hg10 mi
10:20 PM61 °FSunny.5 mph83%29.92 "Hg10 mi
9:50 PM63 °FPassing clouds.6 mph77%29.92 "HgN/A
9:20 PM63 °FSunny.7 mph77%29.92 "Hg10 mi
8:50 PM63 °FSunny.6 mph77%29.92 "Hg10 mi
8:20 PM63 °FSunny.6 mph83%29.92 "Hg10 mi
7:50 PM63 °FSunny.10 mph83%29.92 "Hg10 mi
7:20 PM61 °FSunny.12 mph88%29.92 "Hg10 mi
6:50 PM61 °FSunny.15 mph83%29.92 "Hg10 mi
6:20 PM63 °FScattered clouds.14 mph77%29.92 "HgN/A
5:50 PM63 °FScattered clouds.15 mph83%29.92 "HgN/A
5:20 PM64 °FScattered clouds.14 mph78%29.92 "HgN/A
4:50 PM66 °FScattered clouds.17 mph73%29.92 "HgN/A
4:20 PM64 °FScattered clouds.15 mph78%29.92 "HgN/A
3:50 PM64 °FPassing clouds.12 mph78%29.92 "HgN/A
3:20 PM64 °FPassing clouds.15 mph78%29.92 "HgN/A
2:50 PM68 °FPassing clouds.15 mph69%29.92 "HgN/A
2:20 PM66 °FPassing clouds.15 mph73%29.92 "HgN/A
1:50 PM66 °FPassing clouds.16 mph73%29.92 "HgN/A
1:20 PM66 °FPassing clouds.15 mph68%29.92 "HgN/A
12:50 PM64 °FPassing clouds.14 mph73%29.92 "HgN/A
12:20 PM66 °FScattered clouds.13 mph68%29.92 "HgN/A
11:50 AM64 °FScattered clouds.12 mph73%29.92 "HgN/A
11:20 AM63 °FScattered clouds.12 mph77%29.92 "HgN/A
10:50 AM63 °FScattered clouds.13 mph73%29.92 "HgN/A
10:20 AM63 °FScattered clouds.10 mph73%29.92 "HgN/A
9:50 AM63 °FScattered clouds.9 mph73%29.92 "HgN/A
9:20 AM63 °FPassing clouds.12 mph68%29.92 "HgN/A
8:50 AM61 °FPassing clouds.8 mph77%29.92 "HgN/A
8:20 AM59 °FSunny.8 mph77%29.92 "Hg10 mi
7:50 AM59 °FSunny.10 mph82%29.92 "Hg10 mi
7:20 AM55 °FScattered clouds.6 mph94%29.92 "HgN/A
6:50 AM55 °FPartly sunny.8 mph94%29.92 "HgN/A
6:20 AM55 °FPartly sunny.12 mph94%29.92 "HgN/A
5:50 AM55 °FPartly sunny.9 mph88%29.89 "HgN/A
4:50 AM55 °FPartly cloudy.9 mph88%29.92 "HgN/A
4:20 AM55 °FOvercast.10 mph94%29.92 "HgN/A
3:50 AM55 °FPassing clouds.10 mph94%29.92 "HgN/A
3:20 AM55 °FPassing clouds.8 mph94%29.92 "HgN/A
2:50 AM55 °FOvercast.10 mph94%29.92 "HgN/A
2:20 AM55 °FOvercast.13 mph94%29.92 "HgN/A
1:50 AM57 °FPassing clouds.10 mph82%29.92 "HgN/A
1:20 AM57 °FPassing clouds.9 mph77%29.92 "HgN/A
Weather by CustomWeather, © 2015

See weather overviewHow to use our weather pages